Location: Dodgeville, WI 53533, USA
(43.0344°N, 90.0900°W)
Time: 10:09:41
(UTC-06:00)

BlueWalker 3 - Pass Details

Date: 18 November 2025
Orbit: 455 x 462 km, 53.2° (Epoch: 11 December)

Event Time Altitude Azimuth Distance (km) Brightness Sun altitude
Rises 18:25:10 0° 220° (SW) 2,474 6.2 -20.2°
Reaches altitude 10° 18:27:19 10° 215° (SW) 1,604 5.1 -20.6°
Enters shadow 18:30:18 47° 172° (S) 624 2.3 -21.1°
